DW9493 Weather Reports


Display with metric or nautical units.
time (UTC)temp
F
wind
direction
speed
MPH
gust
MPH
rain 1hr
in
rain 24hr
in
rain mn
in
humidity
%
barometer
mb
20260508104721 35 323 1.0 5.0 0.00 0.23 0.00 88 1019.2
20260508104158 34 79 1.0 5.0 0.00 0.23 0.00 89 1019.3
20260508102715 34 259 0.0 1.0 0.00 0.23 0.00 86 1019.3
20260508101712 35 273 0.0 1.0 0.00 0.23 0.00 86 1019.1
20260508100715 35 326 0.0 1.0 0.00 0.23 0.00 85 1019.0
20260508095713 35 198 0.0 2.0 0.00 0.23 0.00 85 1019.0
20260508094714 36 195 1.0 4.0 0.00 0.23 0.00 84 1019.0
20260508094628 36 324 0.0 2.0 0.00 0.23 0.00 83 1019.0
20260508092709 36 280 0.0 2.0 0.00 0.23 0.00 82 1019.0
20260508092152 37 319 1.0 4.0 0.00 0.23 0.00 80 1019.0
20260508091144 37 312 1.0 3.0 0.00 0.23 0.00 80 1019.1
20260508090620 38 210 0.0 1.0 0.00 0.23 0.00 80 1019.0
20260508084710 38 250 0.0 3.0 0.00 0.23 0.00 79 1019.2
20260508084122 38 198 0.0 2.0 0.00 0.23 0.00 80 1019.1
20260508082643 38 305 1.0 5.0 0.00 0.23 0.00 79 1019.1
20260508081644 39 323 1.0 3.0 0.00 0.23 0.00 78 1019.2
20260508080643 39 208 2.0 10.0 0.00 0.23 0.00 79 1019.2
20260508075643 38 299 1.0 4.0 0.00 0.23 0.00 80 1019.6
20260508074642 38 323 0.0 4.0 0.00 0.23 0.00 80 1019.6
20260508073640 38 205 0.0 1.0 0.00 0.23 0.00 80 1019.7
20260508073550 39 205 1.0 4.0 0.00 0.23 0.00 80 1019.7
20260508072113 38 6 1.0 4.0 0.00 0.23 0.00 80 1019.8
20260508070635 39 207 0.0 2.0 0.00 0.23 0.00 79 1019.8
20260508065632 40 194 0.0 1.0 0.00 0.23 0.00 77 1020.1
20260508064631 40 169 0.0 2.0 0.00 0.23 0.00 76 1020.1
20260508063629 41 161 0.0 2.0 0.00 0.23 0.00 75 1020.2
20260508062626 40 250 0.0 1.0 0.00 0.23 0.00 74 1020.1
20260508061626 42 250 1.0 4.0 0.00 0.23 0.00 71 1020.0
20260508060625 41 238 1.0 3.0 0.00 0.23 0.00 72 1020.1
20260508055622 41 328 0.0 3.0 0.00 0.23 0.23 72 1020.0
20260508054618 42 208 1.0 4.0 0.00 0.23 0.23 69 1020.1
20260508053618 42 314 0.0 3.0 0.00 0.23 0.23 69 1020.1
20260508053530 44 302 0.0 2.0 0.00 0.23 0.23 67 1020.0
20260508051612 44 326 0.0 1.0 0.00 0.23 0.23 64 1019.8
20260508051101 45 328 1.0 4.0 0.00 0.23 0.23 62 1019.6
20260508050047 45 332 1.0 5.0 0.00 0.23 0.23 63 1019.5
20260508044612 44 319 1.0 3.0 0.00 0.23 0.23 66 1019.3
20260508043607 44 166 0.0 1.0 0.00 0.23 0.23 67 1019.5
20260508042607 44 311 0.0 2.0 0.00 0.23 0.23 65 1019.3
20260508042519 44 304 0.0 1.0 0.00 0.23 0.23 66 1019.2
20260508041031 44 46 0.0 3.0 0.00 0.23 0.23 64 1019.1
20260508035557 44 46 0.0 1.0 0.00 0.23 0.23 65 1019.1
20260508034558 44 298 0.0 1.0 0.00 0.23 0.23 65 1019.1
20260508033558 44 231 0.0 3.0 0.00 0.23 0.23 66 1019.1
20260508032557 45 89 0.0 2.0 0.00 0.23 0.23 64 1019.0
20260508031556 46 204 0.0 1.0 0.00 0.23 0.23 61 1019.1
20260508030539 47 31 0.0 1.0 0.00 0.23 0.23 60 1019.2
20260508030013 47 341 0.0 2.0 0.00 0.23 0.23 59 1019.2
20260508024535 47 236 0.0 2.0 0.00 0.23 0.23 59 1019.0
20260508023535 48 301 2.0 7.0 0.00 0.23 0.23 57 1018.8
20260508023020 49 300 3.0 8.0 0.00 0.23 0.23 56 1018.8
20260508021535 49 212 2.0 6.0 0.00 0.23 0.23 53 1019.1
20260508020535 50 259 2.0 9.0 0.00 0.23 0.23 52 1019.5
20260508015534 50 280 1.0 6.0 0.00 0.23 0.23 51 1019.2
20260508014529 51 276 3.0 7.0 0.00 0.23 0.23 50 1019.0
20260508013529 51 273 2.0 6.0 0.00 0.23 0.23 48 1018.8
20260508012528 52 256 4.0 9.0 0.00 0.23 0.23 47 1018.7
20260508011525 53 277 5.0 15.0 0.00 0.24 0.23 45 1018.7
20260508010525 55 242 2.0 13.0 0.00 0.24 0.23 40 1018.6
20260508005527 56 310 0.0 1.0 0.00 0.24 0.23 42 1018.1
20260508005003 56 294 0.0 4.0 0.00 0.24 0.23 38 1017.9
20260508003523 56 120 0.0 2.0 0.00 0.24 0.23 38 1017.9
20260508002523 56 133 1.0 4.0 0.00 0.24 0.23 38 1017.8
20260508001523 56 245 2.0 7.0 0.00 0.25 0.23 38 1017.9
20260508000523 56 228 6.0 14.0 0.00 0.25 0.23 39 1018.2
20260507235523 56 269 6.0 13.0 0.00 0.25 0.23 37 1018.1
20260507234522 56 249 5.0 13.0 0.00 0.25 0.23 35 1017.9
20260507233522 57 214 6.0 11.0 0.00 0.25 0.23 34 1017.8
20260507232454 58 207 6.0 19.0 0.00 0.26 0.23 32 1017.8
20260507231928 58 226 6.0 11.0 0.00 0.26 0.23 34 1017.8
20260507230453 58 277 1.0 9.0 0.00 0.27 0.23 32 1017.8
20260507225453 56 240 3.0 8.0 0.00 0.27 0.23 34 1017.9
20260507224454 56 243 6.0 13.0 0.00 0.28 0.23 34 1017.9
20260507223452 56 234 6.0 11.0 0.00 0.28 0.23 33 1018.1
20260507222435 57 237 8.0 16.0 0.00 0.29 0.23 34 1018.1
20260507221431 56 188 5.0 13.0 0.00 0.30 0.23 34 1018.2
20260507220911 56 284 3.0 8.0 0.00 0.30 0.23 33 1018.1
20260507215432 56 297 5.0 17.0 0.00 0.31 0.23 34 1018.2
20260507214917 55 317 6.0 17.0 0.00 0.32 0.23 35 1018.4
20260507213431 56 248 2.0 8.0 0.00 0.32 0.23 34 1018.6
20260507212917 55 326 1.0 5.0 0.00 0.33 0.23 36 1018.7
20260507211429 54 241 1.0 4.0 0.00 0.34 0.23 38 1018.8
20260507210417 54 317 1.0 5.0 0.00 0.35 0.23 37 1019.1
20260507210340 54 12 1.0 6.0 0.00 0.35 0.23 36 1019.1
20260507204413 55 81 1.0 8.0 0.00 0.36 0.23 36 1019.0
20260507203413 54 333 4.0 17.0 0.00 0.36 0.23 36 1019.2
20260507202409 55 328 6.0 14.0 0.00 0.36 0.23 36 1019.2
20260507201903 55 219 3.0 9.0 0.00 0.36 0.23 35 1019.2
20260507200406 54 226 4.0 17.0 0.00 0.36 0.23 35 1019.3
20260507195407 54 252 5.0 12.0 0.00 0.36 0.23 37 1019.5
20260507194407 53 211 5.0 10.0 0.00 0.36 0.23 37 1019.6
20260507193407 54 190 3.0 9.0 0.00 0.36 0.23 36 1019.7
20260507192407 54 231 2.0 7.0 0.00 0.36 0.23 35 1019.7
20260507191409 55 242 5.0 18.0 0.00 0.36 0.23 37 1019.8
20260507190405 55 212 4.0 10.0 0.00 0.36 0.23 38 1019.6
20260507185405 55 264 7.0 22.0 0.01 0.36 0.23 36 1019.6
20260507184405 54 295 6.0 19.0 0.01 0.36 0.23 38 1019.7
20260507183406 53 256 5.0 13.0 0.01 0.36 0.23 39 1019.8
20260507182405 54 243 1.0 5.0 0.01 0.36 0.23 40 1020.0
20260507181405 53 345 1.0 5.0 0.02 0.36 0.23 40 1020.2
20260507180405 53 312 1.0 4.0 0.02 0.36 0.23 40 1020.1
20260507175351 52 102 1.0 5.0 0.01 0.35 0.22 41 1020.0
20260507174350 50 188 0.0 3.0 0.02 0.35 0.22 47 1020.2
20260507173351 49 132 0.0 2.0 0.02 0.35 0.22 48 1020.5
20260507172351 48 205 0.0 3.0 0.02 0.35 0.22 45 1020.5
20260507171826 49 207 1.0 5.0 0.02 0.34 0.21 46 1020.3
20260507170351 48 210 1.0 2.0 0.02 0.34 0.21 46 1020.3
20260507165354 47 142 1.0 4.0 0.03 0.34 0.21 51 1020.5
20260507164833 47 203 1.0 4.0 0.02 0.33 0.20 49 1020.3
20260507164308 48 203 1.0 3.0 0.03 0.33 0.20 49 1020.5
20260507162349 48 204 2.0 6.0 0.04 0.33 0.20 46 1020.8
20260507161834 47 243 7.0 17.0 0.04 0.32 0.19 45 1021.0
20260507160349 46 268 3.0 9.0 0.06 0.32 0.19 52 1020.8
20260507155829 47 202 2.0 6.0 0.06 0.31 0.18 49 1021.0
20260507154348 47 214 6.0 13.0 0.08 0.31 0.18 47 1021.1
20260507153343 47 259 8.0 16.0 0.10 0.30 0.17 48 1021.0
20260507152344 46 236 5.0 8.0 0.13 0.29 0.16 52 1021.0
20260507151820 47 267 5.0 10.0 0.15 0.28 0.15 51 1021.1
20260507150338 47 242 6.0 12.0 0.13 0.26 0.13 48 1020.8
20260507145339 48 262 6.0 12.0 0.12 0.25 0.12 48 1021.0
20260507144339 49 242 7.0 14.0 0.10 0.23 0.10 48 1020.8
20260507143334 49 249 7.0 13.0 0.07 0.20 0.07 49 1020.7
20260507142334 48 278 7.0 14.0 0.03 0.16 0.03 49 1020.7
20260507141333 47 247 6.0 13.0 0.00 0.13 0.00 51 1020.7
20260507140333 46 234 7.0 16.0 0.00 0.13 0.00 52 1020.7
20260507135333 46 250 8.0 14.0 0.00 0.13 0.00 50 1020.6
20260507134330 44 248 3.0 15.0 0.00 0.13 0.00 53 1021.0
20260507133331 43 320 1.0 5.0 0.00 0.13 0.00 55 1020.8
20260507132332 43 324 1.0 3.0 0.00 0.13 0.00 55 1020.8
20260507132250 42 308 1.0 5.0 0.00 0.13 0.00 56 1020.8
20260507130331 42 285 1.0 3.0 0.00 0.13 0.00 56 1020.8
20260507125332 40 245 1.0 3.0 0.00 0.13 0.00 58 1020.8
20260507124331 39 279 2.0 4.0 0.00 0.13 0.00 60 1020.7
20260507123813 38 239 3.0 7.0 0.00 0.13 0.00 60 1020.7
20260507122806 37 248 3.0 6.0 0.00 0.13 0.00 62 1020.8
20260507121330 36 255 3.0 5.0 0.00 0.13 0.00 63 1021.0
20260507120319 36 277 3.0 5.0 0.00 0.13 0.00 64 1021.0
20260507115313 36 238 3.0 6.0 0.00 0.13 0.00 62 1020.7
20260507114313 37 243 4.0 7.0 0.00 0.13 0.00 59 1020.7
20260507113313 38 240 6.0 11.0 0.00 0.13 0.00 57 1020.7
20260507112313 38 262 5.0 8.0 0.00 0.13 0.00 58 1020.7
20260507111313 37 264 5.0 9.0 0.00 0.13 0.00 59 1020.7
20260507110313 37 250 4.0 8.0 0.00 0.13 0.00 59 1020.7
20260507105312 36 225 3.0 6.0 0.00 0.13 0.00 61 1020.6